Find Local Weather

World > North America > United States > Ohio

Cleveland, Ohio Regional Weather

Lat: 41.48N, Lon: 81.68W
Wx Zone: OHZ011
Feedback
Expires:201807182300;;686522
ASUS41 KCLE 182212
RWRCLE
OHIO REGIONAL WEATHER ROUNDUP
NATIONAL WEATHER SERVICE WILMINGTON, OH
600 PM EDT WED JUL 18 2018

NOTE: "FAIR" INDICATES FEW OR NO CLOUDS BELOW 12,000 FEET WITH NO
SIGNIFICANT WEATHER AND/OR OBSTRUCTIONS TO VISIBILITY.


OHZ009>014-019>023-028>033-038-089-182300-
   NORTHEAST OHIO
  
CITY           SKY/WX    TMP DP  RH WIND       PRES   REMARKS
CLE-HOPKINS    FAIR      77  51  40 VRB6      30.08S                  
CLE-LAKEFRONT  FAIR      76  51  41 NE8       30.05F                  
CUY CO. ARPT   MOSUNNY   77  46  33 N12       30.07F                  
LORAIN-ELYRIA  FAIR      76  46  34 VRB3      30.07F                  
ASHTABULA      FAIR      75  52  44 N7        30.07F                  
AKRON-CANTON   FAIR      78  54  43 N5        30.05F                  
WOOSTER        FAIR      77  52  41 W5        30.06F                  
MANSFIELD      FAIR      78  51  38 N7        30.07F                  
YOUNGSTOWN     FAIR      77  58  51 N8        30.05F                  
$$
 

SKY/WX - Weather  TMP - Temperature  DP - Dewpoint  RH - Relative Humidity
WIND - Wind Direction/Speed PRES - Barometric Pressure